{"data":{"norad_id":54760,"epoch":"2026-05-25T04:18:03.451968Z","epoch_age_seconds":59282,"freshness":"FRESH","line1":"1 54760U 22175C   26145.17920662 -.00001485  00000+0 -75167-4 0  9999","line2":"2 54760  53.2144  60.9325 0001823  91.6071 268.5130 15.08848739191465","mean_motion":15.08848739,"eccentricity":0.0001823,"inclination_deg":53.2144,"raan_deg":60.9325,"arg_perigee_deg":91.6071,"mean_anomaly_deg":268.513,"bstar":-7.5167e-5,"rev_number":19146,"period_min":95.437001919382,"perigee_km":538.45555274072,"apogee_km":540.97780219152,"semimajor_km":6917.8536774661,"source":"CELESTRAK","updated_at":"2026-05-25T13:38:17.688275Z"}}